When you browse on this site, cookies collect data to enhance your experience and personalize the content and advertising you see.
Visit our Privacy Policy to learn more. By continuing to use the site, you agree to this use of cookies and data.
  • In Germany
  • List of Countries
  • For 7 days
  • Water Temperature
  • Satellite Maps
  • Weather Map
  • Weather Widgets
  • user-avatar
    Login

    Hourly Weather Golocin

    Today, 21 February, Thursday

    Time Temperature Precipitation Wind Pressure Humidity
    00:00 +1°C° 0 mm 3 mps 754 mmHg 90%
    01:00 +2°C° 0 mm 2 mps 754 mmHg 94%
    02:00 +1°C° 0 mm 3 mps 754 mmHg 94%
    03:00 +1°C° 0 mm 3 mps 754 mmHg 95%
    04:00 +1°C° 0 mm 3 mps 754 mmHg 95%
    05:00 +1°C° 0.1 mm 3 mps 754 mmHg 95%
    06:00 +2°C° 0.1 mm 3 mps 754 mmHg 96%
    07:00 +2°C° 0.1 mm 3 mps 754 mmHg 96%
    08:00 +1°C° 0.2 mm 4 mps 754 mmHg 95%
    09:00 +3°C° 0.2 mm 4 mps 754 mmHg 94%
    10:00 +3°C° 0.2 mm 4 mps 754 mmHg 93%
    11:00 +2°C° 1 mm 5 mps 754 mmHg 92%
    12:00 +3°C° 1 mm 5 mps 753 mmHg 92%
    13:00 +3°C° 1 mm 5 mps 753 mmHg 91%
    14:00 +3°C° 0.7 mm 5 mps 753 mmHg 91%
    15:00 +3°C° 0.7 mm 5 mps 753 mmHg 92%
    16:00 +3°C° 0.7 mm 5 mps 752 mmHg 92%
    17:00 +4°C° 0.8 mm 4 mps 752 mmHg 93%
    18:00 +4°C° 0.8 mm 4 mps 752 mmHg 94%
    19:00 +4°C° 0.8 mm 4 mps 752 mmHg 95%
    20:00 +4°C° 0.8 mm 4 mps 752 mmHg 95%
    21:00 +4°C° 0.8 mm 4 mps 752 mmHg 96%
    22:00 +4°C° 0.8 mm 4 mps 752 mmHg 96%
    23:00 +1°C° 0.5 mm 5 mps 753 mmHg 92%

    Tomorrow, 22 February, Friday

    Time Temperature Precipitation Wind Pressure Humidity
    00:00 -2°C° 0.5 mm 6 mps 754 mmHg 88%
    01:00 -5°C° 0.5 mm 8 mps 754 mmHg 84%
    02:00 -4°C° 0 mm 7 mps 755 mmHg 79%
    03:00 -4°C° 0 mm 7 mps 756 mmHg 74%
    04:00 -5°C° 0 mm 6 mps 758 mmHg 68%
    05:00 -5°C° 0 mm 6 mps 759 mmHg 66%
    06:00 -6°C° 0 mm 6 mps 760 mmHg 64%
    07:00 -6°C° 0 mm 6 mps 762 mmHg 62%
    08:00 -6°C° 0 mm 6 mps 763 mmHg 56%
    09:00 -6°C° 0 mm 6 mps 764 mmHg 50%
    10:00 -5°C° 0 mm 6 mps 765 mmHg 45%
    11:00 -5°C° 0 mm 5 mps 765 mmHg 43%
    12:00 -4°C° 0 mm 5 mps 766 mmHg 41%
    13:00 -3°C° 0 mm 4 mps 767 mmHg 40%
    14:00 -3°C° 0 mm 4 mps 767 mmHg 40%
    15:00 -3°C° 0 mm 4 mps 767 mmHg 41%
    16:00 -3°C° 0 mm 4 mps 767 mmHg 42%
    17:00 -4°C° 0 mm 4 mps 768 mmHg 44%
    18:00 -4°C° 0 mm 4 mps 768 mmHg 47%
    19:00 -5°C° 0 mm 3 mps 769 mmHg 50%
    20:00 -5°C° 0 mm 3 mps 769 mmHg 48%
    21:00 -5°C° 0 mm 3 mps 770 mmHg 47%
    22:00 -5°C° 0 mm 3 mps 770 mmHg 45%
    23:00 -5°C° 0 mm 3 mps 770 mmHg 46%

    Day after tomorrow, 23 February, Saturday

    Time Temperature Precipitation Wind Pressure Humidity
    00:00 -4°C° 0 mm 2 mps 770 mmHg 47%
    01:00 -4°C° 0 mm 2 mps 771 mmHg 47%
    02:00 -5°C° 0 mm 2 mps 771 mmHg 49%
    03:00 -5°C° 0 mm 2 mps 770 mmHg 50%
    04:00 -3°C° 0 mm 1 mps 770 mmHg 51%
    05:00 -3°C° 0 mm 1 mps 770 mmHg 52%
    06:00 -3°C° 0 mm 1 mps 771 mmHg 52%
    07:00 -3°C° 0 mm 1 mps 771 mmHg 52%
    08:00 -2°C° 0 mm 1 mps 771 mmHg 47%
    09:00 -2°C° 0 mm 1 mps 771 mmHg 41%
    10:00 -1°C° 0 mm 1 mps 772 mmHg 36%
    11:00 0°C° 0 mm 1 mps 771 mmHg 33%
    12:00 0°C° 0 mm 1 mps 771 mmHg 30%
    13:00 +1°C° 0 mm 1 mps 770 mmHg 28%
    14:00 +1°C° 0 mm 1 mps 770 mmHg 29%
    15:00 +1°C° 0 mm 1 mps 770 mmHg 31%
    16:00 -1°C° 0 mm 2 mps 770 mmHg 33%
    17:00 +1°C° 0 mm 1 mps 769 mmHg 35%
    18:00 0°C° 0 mm 1 mps 769 mmHg 38%
    19:00 0°C° 0 mm 1 mps 769 mmHg 40%
    20:00 0°C° 0 mm 1 mps 769 mmHg 41%
    21:00 -2°C° 0 mm 2 mps 769 mmHg 41%
    22:00 -2°C° 0 mm 2 mps 769 mmHg 42%
    23:00 -2°C° 0 mm 2 mps 768 mmHg 44%

    24 February, Sunday

    Time Temperature Precipitation Wind Pressure Humidity
    00:00 -3°C° 0 mm 2 mps 768 mmHg 45%
    01:00 -4°C° 0 mm 3 mps 768 mmHg 47%
    02:00 -4°C° 0 mm 3 mps 767 mmHg 46%
    03:00 -4°C° 0 mm 3 mps 767 mmHg 46%
    04:00 -4°C° 0 mm 3 mps 766 mmHg 46%
    05:00 -4°C° 0 mm 3 mps 766 mmHg 46%
    06:00 -4°C° 0 mm 3 mps 766 mmHg 47%
    07:00 -4°C° 0 mm 3 mps 766 mmHg 47%
    08:00 -2°C° 0 mm 3 mps 766 mmHg 46%
    09:00 -1°C° 0 mm 3 mps 766 mmHg 45%
    10:00 0°C° 0 mm 3 mps 766 mmHg 43%
    11:00 +1°C° 0 mm 3 mps 765 mmHg 47%
    12:00 +1°C° 0 mm 3 mps 765 mmHg 50%
    13:00 +2°C° 0 mm 3 mps 765 mmHg 53%
    14:00 +3°C° 0 mm 2 mps 765 mmHg 59%
    15:00 +3°C° 0 mm 2 mps 765 mmHg 64%
    16:00 +3°C° 0 mm 2 mps 764 mmHg 70%
    17:00 +2°C° 0 mm 2 mps 764 mmHg 75%
    18:00 +2°C° 0 mm 1 mps 764 mmHg 81%
    19:00 +2°C° 0 mm 1 mps 764 mmHg 86%
    20:00 +2°C° 0 mm 1 mps 764 mmHg 88%
    21:00 +2°C° 0 mm 1 mps 764 mmHg 90%
    22:00 +2°C° 0 mm 1 mps 764 mmHg 92%
    23:00 +1°C° 0 mm 1 mps 764 mmHg 92%

    25 February, Monday

    Time Temperature Precipitation Wind Pressure Humidity
    00:00 +1°C° 0 mm 1 mps 764 mmHg 93%
    01:00 -1°C° 0 mm 2 mps 764 mmHg 94%
    02:00 -1°C° 0 mm 2 mps 764 mmHg 94%
    03:00 -1°C° 0 mm 2 mps 764 mmHg 94%
    04:00 -1°C° 0 mm 2 mps 764 mmHg 94%
    05:00 -1°C° 0 mm 2 mps 764 mmHg 94%
    06:00 -1°C° 0 mm 2 mps 764 mmHg 95%
    07:00 -1°C° 0 mm 2 mps 765 mmHg 96%
    08:00 0°C° 0 mm 3 mps 765 mmHg 92%
    09:00 +1°C° 0 mm 3 mps 766 mmHg 89%
    10:00 +2°C° 0 mm 3 mps 766 mmHg 86%
    11:00 +3°C° 0 mm 3 mps 766 mmHg 81%
    12:00 +5°C° 0 mm 2 mps 766 mmHg 76%
    13:00 +6°C° 0 mm 2 mps 766 mmHg 71%
    14:00 +5°C° 0 mm 2 mps 766 mmHg 73%
    15:00 +5°C° 0 mm 2 mps 765 mmHg 75%
    16:00 +4°C° 0 mm 2 mps 765 mmHg 77%
    17:00 +3°C° 0 mm 2 mps 765 mmHg 80%
    18:00 +2°C° 0 mm 2 mps 765 mmHg 82%
    19:00 +1°C° 0 mm 2 mps 766 mmHg 85%
    20:00 +2°C° 0 mm 1 mps 765 mmHg 85%
    21:00 +2°C° 0 mm 1 mps 765 mmHg 85%
    22:00 +2°C° 0 mm 1 mps 765 mmHg 84%
    23:00 +2°C° 0 mm 1 mps 765 mmHg 85%

    26 February, Tuesday

    Time Temperature Precipitation Wind Pressure Humidity
    00:00 +1°C° 0 mm 2 mps 764 mmHg 85%
    01:00 +1°C° 0 mm 2 mps 764 mmHg 85%
    02:00 +1°C° 0 mm 2 mps 763 mmHg 86%
    03:00 0°C° 0 mm 3 mps 763 mmHg 87%
    04:00 0°C° 0 mm 3 mps 762 mmHg 88%
    05:00 0°C° 0 mm 3 mps 761 mmHg 89%
    06:00 -1°C° 0 mm 4 mps 761 mmHg 91%
    07:00 -1°C° 0 mm 4 mps 760 mmHg 92%
    08:00 +1°C° 0 mm 4 mps 760 mmHg 87%
    09:00 +2°C° 0 mm 5 mps 759 mmHg 83%
    10:00 +3°C° 0 mm 5 mps 759 mmHg 78%
    11:00 +5°C° 0 mm 5 mps 759 mmHg 74%
    12:00 +5°C° 0 mm 6 mps 758 mmHg 70%
    13:00 +7°C° 0 mm 6 mps 758 mmHg 65%
    14:00 +7°C° 0 mm 5 mps 757 mmHg 68%
    15:00 +6°C° 0 mm 5 mps 757 mmHg 70%
    16:00 +6°C° 0 mm 4 mps 757 mmHg 73%
    17:00 +5°C° 0 mm 4 mps 757 mmHg 77%
    18:00 +4°C° 0 mm 4 mps 758 mmHg 82%
    19:00 +3°C° 0 mm 4 mps 758 mmHg 87%
    20:00 +1°C° 0 mm 4 mps 758 mmHg 88%
    21:00 +1°C° 0 mm 4 mps 758 mmHg 90%
    22:00 0°C° 0 mm 4 mps 758 mmHg 92%
    23:00 0°C° 0 mm 4 mps 758 mmHg 92%
    Show more